Content
SEND FEEDBACK

Daily
Averages
Monthly
Summary
United States of America

SPEARFISH, SOUTH DAKOTA


Home > North America > United States > South Dakota
Elevation: 3732 feet     Latitude: 44 30N     Longitude: 103 52W

WEATHER
 
SELECT A DAY
Number of Records: 222,904;   Date Range: 1/2/95 - 4/23/14
 
SHARE

PRINT THIS DATA

[ ← Previous Day ]
WEATHER ALMANAC - JANUARY 31, 2013
[ Next Day → ]
[ °C ]   °F
Weather ElementAverageHighLow
Temperature9.5 °F26.6 °F (10:35 pm)-0.4 °F (8:35 am)
Dewpoint2.9 °F19.4 °F (10:55 pm)-5.8 °F (10:55 am)
Humidity75 %85 % (12:35 am)62 % (3:35 pm)
Barometer30.04 in30.14 in (10:55 am)29.90 in (12:35 am)
Wind Speed11.6 mph23 mph (2:55 am)
Wind Gust31.1 mph (1:35 am)
Weather ElementAverage
Visibility7.6 mi
Wind DirectionWNW (299.9 °)

Weather ElementTotal
Precipitation2.88 in
Heating Degree Days51.9 (Base 65)
Averaged from 68 records on January 31, 2013
WEATHER CONDITIONS BREAKOUT
WIND DIRECTION BREAKOUT
WEATHER BY HOUR - JANUARY 31, 2013
[ °C ]   °F
Local TimeTemperatureDewpointHumidityBarometerVisibilityWind DirectionWind SpeedGust SpeedPrecipitationEventsConditions
12:35 AM10.4 °F6.8 °F85 %29.90 in1.8 miWNW (300°)16.1 mph24.2 mph0.30 inSnowLight Snow
1:15 AM8.6 °F5.0 °F85 %29.92 in2.0 miWNW (300°)16.1 mph28.8 mph0.05 inSnowLight Snow
1:35 AM8.6 °F5.0 °F85 %29.92 in1.5 miWNW (290°)20.7 mph31.1 mph0.17 inSnowLight Snow
1:55 AM8.6 °F3.2 °F79 %29.93 in1.8 miNW (310°)17.3 mph31.1 mph0.23 inSnowLight Snow
2:15 AM8.6 °F3.2 °F79 %29.93 in2.5 miWNW (300°)19.6 mph28.8 mph0.03 inSnowLight Snow
2:35 AM8.6 °F3.2 °F79 %29.94 in5.0 miWNW (290°)19.6 mph31.1 mph0.04 inSnowLight Snow
2:55 AM8.6 °F1.4 °F73 %29.96 in4.0 miNW (310°)23.0 mph29.9 mph0.06 inSnowLight Snow
3:15 AM6.8 °F-0.4 °F72 %29.96 in2.5 miNW (310°)19.6 mph26.5 mph0.04 inSnowLight Snow
3:35 AM5.0 °F-0.4 °F78 %29.96 in2.5 miNW (310°)18.4 mph24.2 mph0.12 inSnowLight Snow
3:55 AM5.0 °F-0.4 °F78 %29.97 in1.8 miNW (310°)16.1 mph0.26 inSnowLight Snow
4:15 AM5.0 °F-0.4 °F78 %29.98 in1.5 miNW (310°)13.8 mph0.09 inSnowLight Snow
4:35 AM5.0 °F-0.4 °F78 %30.00 in1.2 miNW (310°)15.0 mph0.28 inSnowLight Snow
4:55 AM5.0 °F-0.4 °F78 %30.00 in2.0 miNW (310°)17.3 mph24.2 mph0.39 inSnowLight Snow
5:15 AM3.2 °F-0.4 °F85 %30.01 in1.5 miWNW (300°)20.7 mph31.1 mph0.08 inSnowLight Snow
5:35 AM3.2 °F-2.2 °F78 %30.03 in2.0 miWNW (300°)18.4 mph26.5 mph0.15 inSnowLight Snow
5:55 AM1.4 °F-2.2 °F85 %30.04 in1.8 miNW (310°)15.0 mph21.9 mph0.27 inSnowLight Snow
6:15 AM1.4 °F-2.2 °F85 %30.05 in3.0 miWNW (290°)12.7 mph0.02 inSnowLight Snow
6:35 AM1.4 °F-2.2 °F85 %30.05 in3.0 miWest (280°)12.7 mph18.4 mph0.04 inSnowLight Snow
6:55 AM1.4 °F-2.2 °F85 %30.07 in2.0 miWest (280°)16.1 mph21.9 mph0.09 inSnowLight Snow
7:15 AM1.4 °F-2.2 °F85 %30.06 in2.5 miWNW (290°)13.8 mph18.4 mph0.03 inSnowLight Snow
7:35 AM1.4 °F-2.2 °F85 %30.07 in4.0 miWNW (290°)18.4 mph24.2 mph0.07 inSnowLight Snow
7:55 AM1.4 °F-4.0 °F78 %30.09 in10.0 miWNW (300°)15.0 mph0.07 inOvercast
8:15 AM1.4 °F-2.2 °F85 %30.09 in10.0 miNW (320°)16.1 mphScattered Clouds
8:35 AM-0.4 °F-4.0 °F85 %30.09 in10.0 miNW (320°)15.0 mphPartly Cloudy
8:55 AM-0.4 °F-4.0 °F85 %30.11 in10.0 miNW (310°)13.8 mphPartly Cloudy
9:15 AM-0.4 °F-4.0 °F85 %30.11 in10.0 miNW (310°)13.8 mphClear
9:55 AM1.4 °F-4.0 °F78 %30.13 in9.0 miNW (310°)15.0 mph19.6 mphSnowLight Snow
10:15 AM1.4 °F-4.0 °F78 %30.13 in10.0 miNW (320°)13.8 mphPartly Cloudy
10:35 AM1.4 °F-4.0 °F78 %30.13 in10.0 miNW (320°)16.1 mphPartly Cloudy
10:55 AM1.4 °F-5.8 °F72 %30.14 in10.0 miNW (310°)12.7 mphClear
11:15 AM1.4 °F-4.0 °F78 %30.13 in10.0 miWNW (300°)10.4 mphClear
11:35 AM1.4 °F-4.0 °F78 %30.13 in10.0 miNW (310°)11.5 mphClear
11:55 AM3.2 °F-4.0 °F72 %30.12 in10.0 miWNW (290°)9.2 mphClear
12:15 PM3.2 °F-4.0 °F72 %30.12 in10.0 miNW (310°)8.1 mphClear
12:35 PM5.0 °F-2.2 °F72 %30.11 in10.0 miWNW (290°)9.2 mphClear
12:55 PM5.0 °F-2.2 °F72 %30.11 in10.0 miNW (310°)6.9 mphClear
1:15 PM6.8 °F-2.2 °F67 %30.10 in10.0 miWNW (300°)8.1 mphClear
1:35 PM6.8 °F-0.4 °F72 %30.09 in10.0 miNW (320°)9.2 mphScattered Clouds
1:55 PM8.6 °F-0.4 °F67 %30.08 in10.0 miNW (310°)5.8 mphScattered Clouds
2:15 PM8.6 °F-0.4 °F67 %30.08 in10.0 miNW (310°)4.6 mphMostly Cloudy
2:35 PM8.6 °F1.4 °F73 %30.07 in10.0 miWNW (290°)5.8 mphOvercast
2:55 PM10.4 °F1.4 °F67 %30.07 in10.0 miWest (260°)4.6 mphOvercast
3:15 PM10.4 °F1.4 °F67 %30.07 in10.0 miNW (320°)5.8 mphOvercast
3:35 PM14.0 °F3.2 °F62 %30.07 in10.0 miNW (320°)8.1 mphOvercast
3:55 PM14.0 °F5.0 °F67 %30.07 in10.0 miNW (310°)9.2 mphOvercast
4:15 PM15.8 °F5.0 °F62 %30.07 in10.0 miWNW (300°)8.1 mph16.1 mphOvercast
4:35 PM17.6 °F6.8 °F63 %30.07 in10.0 miWNW (300°)13.8 mph17.3 mphOvercast
4:55 PM15.8 °F5.0 °F62 %30.06 in10.0 miNW (310°)13.8 mphOvercast
5:15 PM15.8 °F6.8 °F68 %30.05 in10.0 miNW (310°)10.4 mphOvercast
5:35 PM15.8 °F6.8 °F68 %30.05 in10.0 miNW (310°)9.2 mphOvercast
5:55 PM15.8 °F6.8 °F68 %30.05 in10.0 miNW (310°)9.2 mphOvercast
6:15 PM15.8 °F6.8 °F68 %30.05 in10.0 miWNW (300°)8.1 mphOvercast
6:35 PM15.8 °F6.8 °F68 %30.05 in10.0 miWest (280°)6.9 mphOvercast
6:55 PM15.8 °F6.8 °F68 %30.05 in10.0 miWNW (290°)5.8 mphOvercast
7:15 PM15.8 °F6.8 °F68 %30.05 in10.0 miWest (280°)6.9 mphOvercast
7:35 PM15.8 °F8.6 °F73 %30.04 in10.0 miWest (270°)6.9 mphOvercast
7:55 PM15.8 °F8.6 °F73 %30.04 in10.0 miWNW (290°)5.8 mphOvercast
8:15 PM15.8 °F8.6 °F73 %30.03 in10.0 miWest (280°)6.9 mphOvercast
8:35 PM15.8 °F8.6 °F73 %30.03 in10.0 miWNW (290°)5.8 mphOvercast
8:55 PM15.8 °F8.6 °F73 %30.02 in10.0 miWest (280°)4.6 mphOvercast
9:15 PM15.8 °F10.4 °F79 %30.02 in10.0 miWNW (300°)5.8 mphOvercast
9:35 PM17.6 °F10.4 °F73 %30.01 in10.0 miWest (280°)5.8 mphOvercast
9:55 PM19.4 °F14.0 °F80 %30.01 in10.0 miWest (270°)6.9 mphOvercast
10:15 PM24.8 °F17.6 °F74 %30.00 in10.0 miWest (270°)9.2 mphOvercast
10:35 PM26.6 °F17.6 °F69 %29.99 in10.0 miWest (270°)9.2 mphOvercast
10:55 PM26.6 °F19.4 °F74 %29.99 in10.0 miWNW (300°)6.9 mphOvercast
11:15 PM26.6 °F19.4 °F74 %29.98 in10.0 miWNW (300°)6.9 mphOvercast
11:35 PM24.8 °F17.6 °F74 %29.98 in10.0 miNNW (330°)4.6 mphOvercast
Hourly data recorded from KSPF, located 5.19 miles away from Spearfish, South Dakota







STORIES FROM OUR PARTNERS